Weather in Krasnoselkup

Russia / Yamalo-Nenets Autonomous Okrug     65°42′25″N   82°27′57″E
temp.,
°C
wind,
m/s
gust,
m/s
humid.,
%
clouds,
%
prec.,
mm/h
press.,
hPa
HPBL,
m
27 february, sat
sat2723:00−29wnw2298100 0.2 102225
02:00−30wnw2299100 0.1 102219
05:00−29wnw1199100 0.2 102319
08:00−31nne009996 0.1 102219
11:00−28ene119393 0.1 1023179
14:00−27e119195 0.0 1024168
17:00−32ene229953 0.0 102519
20:00−33e221000 0.0 102619
28 february, sun
sun2823:00−34ese22990 0.0 102719
02:00−35se23980 0.0 102719
05:00−36se23980 0.0 102919
08:00−35se33960 0.0 102921
11:00−30sse34920 0.0 1029216
14:00−28sse349017 0.0 1030322
17:00−32se23949 0.0 103019
20:00−33se449327 0.0 103022
1 march, mon
mon123:00−34sse449430 0.0 103023
02:00−34se34968 0.0 102923
05:00−35se44969 0.0 102932
08:00−33sse469645 0.0 102884
11:00−28s459372 0.0 1027247
14:00−26sse4591100 0.0 1026297
17:00−26sse4593100 0.0 1025109
20:00−25sse5893100 0.0 1024185
2 march, tue
tue223:00−26s5793100 0.0 1023172
02:00−27s4793100 0.0 1023126
05:00−28s4694100 0.0 102390
08:00−28s589483 0.0 1023140
11:00−25s688985 0.0 1023303
14:00−22s6987100 0.0 1023340
17:00−24sse579199 0.0 1022120
20:00−25sse6109199 0.0 1022144
3 march, wed
wed323:00−25sse51092100 0.0 1022187
02:00−26sse5990100 0.0 1022132
05:00−27sse6990100 0.0 1022129
08:00−26s61087100 0.0 1022246
11:00−22s71084100 0.0 1022374
14:00−20s71180100 0.0 1022425
17:00−22sse61087100 0.0 1021157
20:00−23sse71289100 0.0 1021199